Time,TemperatureF,DewpointF,PressureIn,WindDirection,WindDirectionDegrees,WindSpeedMPH,WindSpeedGustMPH,Humidity,HourlyPrecipIn,Conditions,Clouds,dailyrainin,SoftwareType,DateUTC
2013-07-03 00:03:00,45.9,36.0,29.88,West,265,0.0,1.0,69,0.00,,,0.00,weatherlink.com 1.10,2013-07-03 06:03:00,
2013-07-03 00:18:00,45.2,36.0,29.88,West,265,0.0,1.0,70,0.00,,,0.00,weatherlink.com 1.10,2013-07-03 06:18:00,
2013-07-03 00:33:00,44.4,36.0,29.88,West,265,0.0,0.0,71,0.00,,,0.00,weatherlink.com 1.10,2013-07-03 06:33:00,
2013-07-03 01:03:00,42.6,36.0,29.89,West,265,0.0,1.0,76,0.00,,,0.00,weatherlink.com 1.10,2013-07-03 07:03:00,
2013-07-03 01:18:00,42.4,36.0,29.89,West,265,0.0,1.0,77,0.00,,,0.00,weatherlink.com 1.10,2013-07-03 07:18:00,
2013-07-03 01:33:00,42.2,35.0,29.89,West,264,0.0,1.0,77,0.00,,,0.00,weatherlink.com 1.10,2013-07-03 07:33:00,
2013-07-03 01:48:00,42.0,36.0,29.89,West,264,0.0,1.0,78,0.00,,,0.00,weatherlink.com 1.10,2013-07-03 07:48:00,
2013-07-03 02:03:00,41.4,35.0,29.89,West,264,0.0,1.0,79,0.00,,,0.00,weatherlink.com 1.10,2013-07-03 08:03:00,
2013-07-03 02:18:00,41.1,35.0,29.89,West,262,0.0,1.0,79,0.00,,,0.00,weatherlink.com 1.10,2013-07-03 08:18:00,
2013-07-03 02:33:00,40.7,35.0,29.89,West,263,0.0,1.0,79,0.00,,,0.00,weatherlink.com 1.10,2013-07-03 08:33:00,
2013-07-03 02:48:00,40.4,35.0,29.88,West,262,0.0,1.0,80,0.00,,,0.00,weatherlink.com 1.10,2013-07-03 08:48:00,
2013-07-03 03:03:00,40.6,35.0,29.88,West,262,0.0,1.0,81,0.00,,,0.00,weatherlink.com 1.10,2013-07-03 09:03:00,
2013-07-03 03:18:00,40.2,35.0,29.88,West,262,0.0,1.0,81,0.00,,,0.00,weatherlink.com 1.10,2013-07-03 09:18:00,
2013-07-03 03:33:00,40.0,35.0,29.88,West,260,0.0,1.0,82,0.00,,,0.00,weatherlink.com 1.10,2013-07-03 09:33:00,
2013-07-03 03:48:00,39.9,35.0,29.88,West,259,1.0,2.0,82,0.00,,,0.00,weatherlink.com 1.10,2013-07-03 09:48:00,
2013-07-03 04:03:00,39.6,35.0,29.88,West,260,0.0,1.0,82,0.00,,,0.00,weatherlink.com 1.10,2013-07-03 10:03:00,
2013-07-03 04:18:00,39.0,34.0,29.88,West,259,0.0,1.0,83,0.00,,,0.00,weatherlink.com 1.10,2013-07-03 10:18:00,
2013-07-03 04:33:00,38.5,34.0,29.89,West,259,0.0,1.0,84,0.00,,,0.00,weatherlink.com 1.10,2013-07-03 10:33:00,
2013-07-03 04:48:00,38.1,34.0,29.89,West,259,0.0,1.0,85,0.00,,,0.00,weatherlink.com 1.10,2013-07-03 10:48:00,
2013-07-03 05:03:00,37.7,34.0,29.89,West,259,0.0,1.0,85,0.00,,,0.00,weatherlink.com 1.10,2013-07-03 11:03:00,
2013-07-03 05:18:00,37.4,34.0,29.89,WSW,258,0.0,1.0,86,0.00,,,0.00,weatherlink.com 1.10,2013-07-03 11:18:00,
2013-07-03 05:33:00,36.9,33.0,29.89,WSW,257,0.0,1.0,86,0.00,,,0.00,weatherlink.com 1.10,2013-07-03 11:33:00,
2013-07-03 06:04:00,36.4,33.0,29.90,WSW,258,0.0,1.0,87,0.00,,,0.00,weatherlink.com 1.10,2013-07-03 12:04:00,
2013-07-03 06:19:00,36.4,33.0,29.90,WSW,258,0.0,1.0,87,0.00,,,0.00,weatherlink.com 1.10,2013-07-03 12:19:00,
2013-07-03 06:34:00,36.6,33.0,29.90,WSW,258,0.0,1.0,88,0.00,,,0.00,weatherlink.com 1.10,2013-07-03 12:34:00,
2013-07-03 06:49:00,36.7,34.0,29.90,WSW,258,0.0,1.0,88,0.00,,,0.00,weatherlink.com 1.10,2013-07-03 12:49:00,
2013-07-03 07:19:00,39.6,36.0,29.89,SW,215,0.0,1.0,87,0.00,,,0.00,weatherlink.com 1.10,2013-07-03 13:19:00,
2013-07-03 07:34:00,41.5,37.0,29.89,SW,225,0.0,1.0,83,0.00,,,0.00,weatherlink.com 1.10,2013-07-03 13:34:00,
2013-07-03 07:49:00,43.9,38.0,29.89,SW,225,0.0,1.0,79,0.00,,,0.00,weatherlink.com 1.10,2013-07-03 13:49:00,
2013-07-03 08:04:00,46.9,38.0,29.89,ESE,103,0.0,3.0,72,0.00,,,0.00,weatherlink.com 1.10,2013-07-03 14:04:00,
2013-07-03 08:19:00,49.2,39.0,29.88,ESE,103,0.0,1.0,69,0.00,,,0.00,weatherlink.com 1.10,2013-07-03 14:19:00,
2013-07-03 08:34:00,51.0,40.0,29.88,ESE,107,0.0,4.0,66,0.00,,,0.00,weatherlink.com 1.10,2013-07-03 14:34:00,
2013-07-03 08:49:00,53.1,40.0,29.87,ESE,102,0.0,4.0,62,0.00,,,0.00,weatherlink.com 1.10,2013-07-03 14:49:00,
2013-07-03 09:04:00,55.7,41.0,29.87,East,81,2.0,8.0,58,0.00,,,0.00,weatherlink.com 1.10,2013-07-03 15:04:00,
2013-07-03 09:19:00,57.9,41.0,29.85,ESE,106,3.0,6.0,53,0.00,,,0.00,weatherlink.com 1.10,2013-07-03 15:19:00,
2013-07-03 09:49:00,60.3,39.0,29.83,ESE,111,3.0,8.0,46,0.00,,,0.00,weatherlink.com 1.10,2013-07-03 15:49:00,
2013-07-03 10:04:00,61.2,40.0,29.82,ESE,102,3.0,9.0,46,0.00,,,0.00,weatherlink.com 1.10,2013-07-03 16:04:00,
2013-07-03 10:19:00,61.8,40.0,29.82,East,89,1.0,9.0,45,0.00,,,0.00,weatherlink.com 1.10,2013-07-03 16:19:00,
2013-07-03 10:34:00,63.4,38.0,29.81,East,86,2.0,9.0,39,0.00,,,0.00,weatherlink.com 1.10,2013-07-03 16:34:00,
2013-07-03 10:49:00,65.5,39.0,29.80,East,99,3.0,7.0,38,0.00,,,0.00,weatherlink.com 1.10,2013-07-03 16:49:00,
2013-07-03 11:05:00,67.4,39.0,29.79,East,98,6.0,8.0,36,0.00,,,0.00,weatherlink.com 1.10,2013-07-03 17:05:00,
2013-07-03 11:20:00,66.8,39.0,29.79,ESE,103,7.0,8.0,36,0.00,,,0.00,weatherlink.com 1.10,2013-07-03 17:20:00,
2013-07-03 11:35:00,66.6,34.0,29.79,ESE,102,2.0,6.0,30,0.00,,,0.00,weatherlink.com 1.10,2013-07-03 17:35:00,
2013-07-03 11:50:00,68.2,35.0,29.78,NNW,335,1.0,6.0,29,0.00,,,0.00,weatherlink.com 1.10,2013-07-03 17:50:00,
2013-07-03 12:05:00,68.4,36.0,29.79,ESE,108,1.0,12.0,30,0.00,,,0.00,weatherlink.com 1.10,2013-07-03 18:05:00,
2013-07-03 12:20:00,66.8,33.0,29.78,ENE,77,3.0,5.0,29,0.00,,,0.00,weatherlink.com 1.10,2013-07-03 18:20:00,
2013-07-03 12:35:00,67.5,33.0,29.77,East,89,2.0,4.0,28,0.00,,,0.00,weatherlink.com 1.10,2013-07-03 18:35:00,
2013-07-03 12:50:00,69.7,34.0,29.77,WSW,247,1.0,6.0,27,0.00,,,0.00,weatherlink.com 1.10,2013-07-03 18:50:00,
2013-07-03 13:05:00,68.5,35.0,29.77,NNW,341,0.0,7.0,29,0.00,,,0.00,weatherlink.com 1.10,2013-07-03 19:05:00,
2013-07-03 13:20:00,68.8,35.0,29.76,East,101,0.0,7.0,29,0.00,,,0.00,weatherlink.com 1.10,2013-07-03 19:20:00,
2013-07-03 13:35:00,70.5,32.0,29.76,WNW,296,0.0,5.0,24,0.00,,,0.00,weatherlink.com 1.10,2013-07-03 19:35:00,
2013-07-03 14:05:00,71.3,29.0,29.77,SSE,158,0.0,6.0,21,0.00,,,0.00,weatherlink.com 1.10,2013-07-03 20:05:00,
2013-07-03 14:20:00,72.1,28.0,29.76,East,81,5.0,5.0,19,0.00,,,0.00,weatherlink.com 1.10,2013-07-03 20:20:00,
2013-07-03 14:35:00,71.3,33.0,29.76,WNW,289,2.0,8.0,24,0.00,,,0.00,weatherlink.com 1.10,2013-07-03 20:35:00,
2013-07-03 14:50:00,72.4,29.0,29.75,NNW,338,1.0,7.0,20,0.00,,,0.00,weatherlink.com 1.10,2013-07-03 20:50:00,
2013-07-03 15:05:00,70.3,36.0,29.75,NNE,20,0.0,7.0,28,0.00,,,0.00,weatherlink.com 1.10,2013-07-03 21:05:00,
2013-07-03 15:20:00,72.9,29.0,29.74,West,276,1.0,11.0,20,0.00,,,0.00,weatherlink.com 1.10,2013-07-03 21:20:00,
2013-07-03 15:35:00,74.7,30.0,29.73,East,94,4.0,21.0,19,0.00,,,0.00,weatherlink.com 1.10,2013-07-03 21:35:00,
2013-07-03 15:50:00,73.1,31.0,29.73,SE,124,2.0,3.0,21,0.00,,,0.00,weatherlink.com 1.10,2013-07-03 21:50:00,
2013-07-03 16:20:00,71.3,32.0,29.74,West,264,2.0,12.0,23,0.00,,,0.00,weatherlink.com 1.10,2013-07-03 22:20:00,
2013-07-03 16:35:00,71.8,30.0,29.73,East,83,0.0,8.0,21,0.00,,,0.00,weatherlink.com 1.10,2013-07-03 22:35:00,
2013-07-03 16:50:00,70.8,32.0,29.74,ENE,67,1.0,8.0,24,0.00,,,0.00,weatherlink.com 1.10,2013-07-03 22:50:00,
2013-07-03 17:20:00,66.7,32.0,29.78,WSW,248,0.0,9.0,28,0.00,,,0.00,weatherlink.com 1.10,2013-07-03 23:20:00,
2013-07-03 17:50:00,66.0,34.0,29.74,West,263,0.0,2.0,31,0.00,,,0.00,weatherlink.com 1.10,2013-07-03 23:50:00,
2013-07-03 18:05:00,66.6,35.0,29.75,West,275,0.0,1.0,31,0.00,,,0.00,weatherlink.com 1.10,2013-07-04 00:05:00,
2013-07-03 18:20:00,66.0,34.0,29.77,West,266,4.0,7.0,30,0.00,,,0.00,weatherlink.com 1.10,2013-07-04 00:20:00,
2013-07-03 18:35:00,63.4,36.0,29.79,ENE,78,5.0,12.0,36,0.00,,,0.00,weatherlink.com 1.10,2013-07-04 00:35:00,
2013-07-03 19:05:00,59.5,37.0,29.80,WNW,282,2.0,13.0,44,0.00,,,0.00,weatherlink.com 1.10,2013-07-04 01:05:00,
2013-07-03 19:20:00,59.1,36.0,29.80,ENE,63,0.0,2.0,43,0.00,,,0.00,weatherlink.com 1.10,2013-07-04 01:20:00,
2013-07-03 19:35:00,59.1,36.0,29.80,WNW,288,0.0,9.0,43,0.00,,,0.00,weatherlink.com 1.10,2013-07-04 01:35:00,
2013-07-03 19:50:00,58.7,37.0,29.81,West,271,2.0,6.0,44,0.00,,,0.00,weatherlink.com 1.10,2013-07-04 01:50:00,
2013-07-03 20:05:00,58.2,37.0,29.81,WSW,255,0.0,3.0,45,0.00,,,0.00,weatherlink.com 1.10,2013-07-04 02:05:00,
2013-07-03 20:21:00,57.9,37.0,29.80,West,276,0.0,4.0,46,0.00,,,0.00,weatherlink.com 1.10,2013-07-04 02:21:00,
2013-07-03 20:35:00,57.1,37.0,29.80,West,276,0.0,1.0,47,0.00,,,0.00,weatherlink.com 1.10,2013-07-04 02:35:00,
2013-07-03 20:50:00,56.1,37.0,29.81,West,276,0.0,1.0,50,0.00,,,0.00,weatherlink.com 1.10,2013-07-04 02:50:00,
2013-07-03 21:05:00,54.9,37.0,29.82,West,276,0.0,0.0,51,0.00,,,0.00,weatherlink.com 1.10,2013-07-04 03:05:00,
2013-07-03 21:20:00,53.4,37.0,29.83,West,272,0.0,1.0,55,0.00,,,0.00,weatherlink.com 1.10,2013-07-04 03:20:00,
2013-07-03 21:35:00,52.5,37.0,29.84,West,272,0.0,1.0,56,0.00,,,0.00,weatherlink.com 1.10,2013-07-04 03:35:00,
2013-07-03 21:50:00,51.7,37.0,29.85,West,272,0.0,0.0,57,0.00,,,0.00,weatherlink.com 1.10,2013-07-04 03:50:00,
2013-07-03 22:05:00,50.8,36.0,29.86,West,271,0.0,1.0,58,0.00,,,0.00,weatherlink.com 1.10,2013-07-04 04:05:00,
2013-07-03 22:20:00,50.2,37.0,29.86,West,271,0.0,1.0,60,0.00,,,0.00,weatherlink.com 1.10,2013-07-04 04:20:00,
2013-07-03 22:35:00,49.3,37.0,29.86,West,271,0.0,1.0,62,0.00,,,0.00,weatherlink.com 1.10,2013-07-04 04:35:00,
2013-07-03 22:50:00,48.5,36.0,29.87,West,271,0.0,0.0,62,0.00,,,0.00,weatherlink.com 1.10,2013-07-04 04:50:00,
2013-07-03 23:05:00,47.3,36.0,29.87,West,271,0.0,1.0,66,0.00,,,0.00,weatherlink.com 1.10,2013-07-04 05:05:00,
2013-07-03 23:20:00,46.8,36.0,29.88,West,270,0.0,1.0,66,0.00,,,0.00,weatherlink.com 1.10,2013-07-04 05:20:00,
2013-07-03 23:35:00,46.2,37.0,29.88,West,270,0.0,1.0,69,0.00,,,0.00,weatherlink.com 1.10,2013-07-04 05:35:00,
2013-07-03 23:50:00,45.3,36.0,29.88,West,270,0.0,1.0,69,0.00,,,0.00,weatherlink.com 1.10,2013-07-04 05:50:00,